TITAN 3C TRANSTAGE DEB, 38700

Orbit data source: Space-Track

TITAN 3C TRANSTAGE DEB, 38700 is space debris originally from a launch on Thu, 26 Sep 1968 UTC launched from the Air Force Eastern Test Range (AFETR). Debris objects in space refer to the collection of defunct objects orbiting the Earth. Examples of debris include non-operational satellites, rocket bodies, and fragments generated from explosions, collisions, or faulty payload assembly.

Not visible in the next 10 days
TITAN 3C TRANSTAGE DEB details
Identifier
38700, 1968-081AA
Orbit
Active
Last TLE update19 hours ago
Origin
Flag of USUSAF SSD (US)
ManufacturerUnknown
MissionSpacecraft
Bus & MotorUnknown
MassUnknown
Launch date (UTC)
1968-09-26 (56 years ago)
Launch vehicleUnknown
Launch site
Air Force Eastern Test Range (AFETR)
Object type
Payload
Rocket body
Debris
Shape & HBRUnknown
Radar Cross SectionSmall (<0.1 m²)

Expand to show TLE details & history

TLE from 19 hours ago
0 TITAN 3C TRANSTAGE DEB
1 38700U 68081AA  24325.55034224 -.00000066  00000-0  00000+0 0  9994
2 38700   1.0219  44.2887 0128325 220.3314 137.6293  1.02728441 58814
Epoch: 2024-11-20T13:12Z
Definitive object data (Epoch: 2024-11-20T13:12:29.569Z)
Latitude
Longitude145.04538°
Altitude35,509.648 km
Speed3.07 km/s
True Right ascension02h 52m 51s
True Declination0° 00' 00"
Sunlit
Object was in daylight at TLE epoch
Visualization TLE readout
Latitude-0.87975°
Longitude85.69067°
Altitude35,006.37 km
Speed3.107 km/s
Apparent Right ascension22h 29m 40s
Apparent Declination-6° 17' 28"
Sunlit
Object is in daylight
Visualization observer readout
Local Sidereal Time05:44:10
Azimuth277.24° WNW
Elevation-18.289°
Doppler factor1
Orbital elements
Apogee altitude35,645.185 km
Perigee altitude34,580.321 km
Semi-major axis41,490.89 km
Eccentricity0.0128325
Inclination1.0219°
RAAN44.2887°
Arg. of periapsis220.3314°
True anomaly138.60864°
Mean anomaly137.6293°
Eccentric anomaly138.12013°
Mean motion0.25681 °/min
BSTARUnknown
Orbital period1401.81 mins
Loading maneuver chart data...

TITAN 3C TRANSTAGE DEB Visibility forecast

Observer location: undefined°, undefined

TITAN 3C TRANSTAGE DEB is not visible in the next 10 days
Span
Click to sort rows by Start time (UTC) header in descending order
Start Az.
Max El. time (UTC)
Max El. Az.
Max El.
End time (UTC)
End Az.
|